SL-16 DEB, 22336

Orbit data source: Space-Track

SL-16 DEB, 22336 is space debris in LEO originally from a launch on Fri, 25 Dec 1992 UTC launched from the Tyuratam Missile And Space Complex (TTMTR). Debris objects in space refer to the collection of defunct objects orbiting the Earth. Examples of debris include non-operational satellites, rocket bodies, and fragments generated from explosions, collisions, or faulty payload assembly.

Loading next visibility...
Identifier
22336, 1992-093Z
Orbit
LEO
Country
Flag of CISCIS
Related business
Manufacturer
Unknown
Mission
Spacecraft
Bus & Motor
Unknown
Mass
Unknown
Launch date (UTC)
1992-12-25 (33 years ago)
Launch vehicle
Unknown
Launch site
Tyuratam Missile And Space Complex (TTMTR)
Object type
Payload
Rocket body
Debris
Shape & HBR
Unknown shape, 0.4 m
Radar Cross Section
Medium (>0.1 m² and <1 m²)

Expand to show TLE details & history
Last TLE update: 19 hours ago

TLE from 19 hours ago
0 SL-16 DEB
1 22336U 92093Z   25352.07917794  .00000399  00000-0  30850-3 0  9990
2 22336  71.1318 225.3673 0118512 282.8872  75.9024 13.95509629672294
Epoch: 2025-12-18T01:54Z
TLE epoch observation values (Epoch: 2025-12-18T01:54:00.974Z)
Latitude
-0.0001°
Longitude
109.92337°
Altitude
891.701 km
Speed
7.417 km/s
True Right ascension
15h 01m 28s
True Declination
0° 00' 00"
Sunlit
Object was in daylight at epoch
Visualization orbit readout
Latitude
Unknown
Longitude
Unknown
Altitude
Unknown
Speed
Unknown
Apparent Right ascension
Unknown
Apparent Declination
Unknown
Sunlit
N/A
Visualization observer readout
Local Sidereal Time
19:51:40
Azimuth
Unknown
Elevation
Unknown
Doppler factor
Unknown
Orbital elements
Apogee altitude
993.658 km
Perigee altitude
820.976 km
Semi-major axis
7,285.454 km
Eccentricity
0.01185
Inclination
71.1318°
RAAN
225.3673°
Arg. of periapsis
282.8872°
True anomaly
77.2242°
Mean anomaly
75.9024°
Eccentric anomaly
76.56284°
Mean motion
3.49026 °/min
Orbital period
103.14 mins
BSTAR
0.0003085
Loading maneuver chart data...
Computing Atmospheric mass density...
Loading historical data...
Loading historical data...
Loading historical data...
Loading historical data...
Loading historical data...
Loading historical data...
Loading historical data...

Documentation

Showing up to 5 results
|